Theta_e
324 332 330 330 340 340 342 343 350 352 353 349 348 349 350 349 353 359 354 354 352 353 355 348 326 334 339 344 342 338 332 337 336 332 329 331 335 340 339 337 339 341 340 341 341 342 343 344 345
323 326 328 334 342 341 340 344 344 349 349 348 349 349 350 353 347 348 353 351 353 353 355 353 333 326 338 340 342 340 338 342 340 334 331 332 335 338 336 336 339 342 342 342 342 343 343 344 345
325 326 332 337 338 342 340 341 342 347 348 348 349 347 347 350 346 348 350 351 351 352 354 356 343 328 328 338 339 341 341 343 340 335 333 333 333 334 333 334 336 338 341 344 347 346 344 343 343
326 326 332 337 338 338 339 341 343 347 348 348 348 348 346 344 347 351 351 351 351 352 352 354 345 335 325 330 337 338 338 339 337 337 336 335 333 332 332 333 335 335 336 339 340 342 342 341 341
322 329 334 336 335 335 340 341 344 344 346 346 348 348 346 346 349 351 352 353 352 351 351 350 351 341 328 329 332 335 337 338 338 337 336 336 335 334 334 334 334 335 336 337 339 339 339 339 339
326 328 331 334 334 335 335 341 341 344 346 347 349 344 345 348 349 348 351 353 352 350 349 352 350 349 333 327 328 329 332 335 337 338 337 337 337 337 337 337 336 335 336 337 338 339 340 340 339
326 327 327 329 330 331 332 335 339 340 343 344 346 341 349 350 347 345 346 349 351 348 348 351 352 351 347 338 329 328 328 329 330 331 333 332 332 332 332 332 332 334 336 337 338 339 340 340 340
324 326 326 326 327 330 331 332 332 339 339 346 335 333 347 349 346 344 344 346 350 347 347 349 352 351 351 348 338 335 333 329 327 329 329 329 329 329 329 330 332 333 336 338 338 339 339 339 339
321 326 327 326 329 329 328 329 337 334 337 333 331 332 338 351 346 345 343 344 345 348 348 348 347 351 351 350 348 341 340 338 336 334 330 330 341 343 343 341 341 337 333 334 336 337 338 338 338
324 326 326 326 326 327 326 327 333 332 332 334 330 334 340 350 346 344 342 342 344 345 348 348 348 348 348 347 348 348 347 348 347 347 349 346 346 346 344 343 339 333 334 334 335 336 336 338 342
324 325 324 323 324 324 324 323 325 327 330 327 325 327 338 347 348 345 344 341 342 343 345 349 349 348 347 348 347 344 342 347 352 355 355 354 352 352 350 349 349 348 347 346 346 348 348 346 346
323 323 323 322 321 322 322 322 322 323 324 323 325 334 332 337 335 339 338 340 343 343 344 348 349 348 352 351 347 343 338 336 337 338 339 346 350 353 354 354 353 354 352 350 350 348 347 347 349
322 322 322 321 321 321 322 321 322 325 323 325 333 336 336 335 332 333 341 349 348 344 345 349 349 349 348 344 340 335 331 330 332 331 332 332 333 338 339 343 345 347 348 351 351 351 350 349 349
322 322 322 322 321 321 323 323 323 325 324 325 326 328 330 335 338 337 339 347 349 344 346 343 342 340 339 336 332 330 330 328 329 327 327 328 328 331 328 329 331 336 341 343 346 348 347 346 345
323 323 323 323 321 321 322 324 325 325 326 326 326 327 327 327 324 330 341 346 344 343 341 339 335 333 331 330 329 328 326 327 325 325 326 326 327 329 329 327 328 329 332 334 338 342 345 347 346
323 323 324 323 322 321 321 326 325 325 327 328 328 328 328 329 327 326 333 340 338 340 338 335 330 329 328 328 327 326 326 325 323 323 323 323 323 321 326 325 327 329 330 332 334 333 332 336 337
324 325 325 324 322 323 323 326 325 325 327 328 329 329 330 330 329 328 328 333 335 337 334 330 328 328 327 326 326 326 326 323 323 322 321 323 323 322 323 322 323 322 325 329 332 335 338 336 332
324 323 323 324 323 323 324 326 325 325 326 327 328 329 330 331 331 329 328 328 330 332 331 328 327 328 327 324 324 323 323 322 322 322 321 322 323 322 321 322 323 321 321 323 327 332 334 338 338
323 323 324 323 322 323 325 326 326 325 325 326 327 328 329 330 329 329 329 328 329 330 329 328 328 327 325 323 322 322 321 321 321 323 323 322 322 322 324 321 322 322 323 323 323 323 325 329 333
323 323 324 323 321 322 325 326 325 325 324 325 326 326 327 327 328 329 328 328 327 327 327 327 327 327 325 324 325 323 324 323 323 324 324 323 323 324 323 323 322 322 320 324 323 324 321 322 331
323 324 324 323 323 322 324 326 325 324 324 323 323 323 324 324 325 327 327 328 328 328 328 329 330 330 330 329 327 327 327 326 325 325 324 324 324 322 324 324 322 322 318 319 321 321 322 320 321
323 321 321 322 323 323 323 322 326 325 324 324 323 323 322 322 322 322 322 322 322 322 323 325 326 326 325 323 324 326 325 325 325 324 323 323 323 324 322 324 323 322 319 320 318 317 319 321 319
321 319 319 319 320 321 320 322 326 324 324 324 323 323 322 322 321 321 319 319 318 318 318 319 319 320 321 323 323 321 319 319 320 320 321 321 322 324 324 323 323 322 321 320 320 319 319 317 318
318 319 319 319 319 321 321 319 318 323 324 324 323 322 321 320 320 319 318 317 317 316 316 316 316 317 318 318 317 317 317 317 316 316 316 316 318 319 321 323 323 322 322 321 320 320 319 319 319
317 318 319 319 320 318 320 318 319 323 323 322 322 321 320 319 318 318 317 316 315 315 314 314 313 314 315 316 316 316 316 316 315 314 314 315 316 317 319 321 323 323 322 320 320 319 319 318 318
318 318 319 318 318 316 317 319 325 322 321 320 320 320 319 319 318 317 316 315 315 314 314 313 313 312 312 313 314 315 315 314 313 313 313 314 314 315 315 320 322 323 322 321 319 318 317 317 317
319 320 319 322 321 321 319 320 322 320 320 320 319 319 319 318 317 317 315 314 314 313 313 312 311 310 310 311 312 313 314 314 313 313 312 312 312 313 313 317 320 322 321 320 318 317 316 316 316
320 318 322 320 325 317 315 315 316 322 321 320 319 318 318 317 316 315 313 312 312 311 311 310 311 311 311 311 311 311 312 312 311 310 310 310 311 312 312 313 317 319 320 318 317 315 315 314 315
320 319 319 319 319 320 318 316 319 318 318 319 318 317 317 316 314 314 312 311 310 310 310 310 310 311 310 310 310 311 310 309 309 308 308 309 309 310 310 310 313 317 317 316 314 314 314 313 313
318 319 319 322 322 320 320 321 319 318 318 318 318 317 316 314 314 313 311 310 310 310 310 310 309 309 309 309 309 308 307 307 306 306 306 306 307 308 308 311 312 313 313 312 311 312 313 312 312
Wind_Speed
2 3 4 6 3 1 7 9 3 6 4 3 4 1 1 4 6 3 5 6 7 12 10 10 14 17 17 20 21 22 24 23 21 21 20 19 17 15 12 12 10 9 9 9 9 8 8 7 7
4 6 6 5 3 1 6 3 8 7 5 4 5 3 2 6 2 7 9 9 8 8 9 9 10 15 17 18 20 21 22 20 18 18 17 16 15 14 12 12 10 8 7 7 6 6 6 5 4
6 8 6 4 3 6 7 3 8 5 3 2 1 0 2 5 6 8 6 10 10 10 8 9 10 12 16 17 18 19 19 18 16 16 15 14 13 12 11 9 8 7 6 5 5 3 4 3 2
6 6 5 11 5 7 6 7 5 5 3 1 3 3 6 8 8 5 8 10 10 10 8 8 11 12 14 15 16 17 17 17 16 15 13 13 12 11 10 8 6 5 5 5 4 4 3 2 2
8 5 4 3 3 6 4 5 6 3 3 2 1 6 6 10 10 9 10 10 10 9 7 7 10 13 14 15 16 15 16 16 14 14 13 11 10 9 8 8 7 6 5 5 5 4 4 4 4
7 4 8 6 5 7 3 3 2 2 2 4 3 4 10 11 11 12 12 11 11 10 9 8 9 10 13 16 16 16 16 14 14 13 12 12 10 9 9 8 8 8 8 8 7 6 6 7 7
10 8 2 2 6 7 3 2 4 3 1 2 6 2 8 12 14 13 12 13 12 11 10 10 10 11 11 10 14 16 13 13 13 11 11 11 10 10 10 10 10 10 10 10 10 9 9 9 10
4 5 7 6 6 9 5 4 1 5 7 4 2 5 9 16 16 12 11 12 13 12 11 11 11 11 11 11 11 11 12 10 9 10 11 10 10 12 12 12 11 12 12 12 11 12 11 12 13
2 7 7 5 6 10 7 4 1 3 3 2 2 6 5 11 15 10 9 11 13 11 11 10 11 12 12 12 11 10 10 10 9 10 9 10 9 11 11 12 15 14 14 14 14 14 14 14 16
6 4 5 4 6 10 7 1 5 4 3 6 3 3 4 12 13 9 9 13 11 13 13 14 14 14 14 12 11 11 10 6 7 7 7 7 8 9 10 12 13 14 14 15 15 16 16 15 13
1 9 7 7 5 2 4 5 1 4 4 15 13 5 4 9 9 8 10 8 13 10 11 11 9 9 9 10 9 6 5 5 6 4 5 6 6 7 8 9 8 8 11 11 12 11 10 12 12
11 7 3 6 4 2 2 5 11 12 11 11 5 8 0 5 5 6 5 6 3 3 5 8 8 7 5 4 2 3 3 2 3 1 1 1 3 6 7 9 9 10 11 11 11 11 10 10 12
9 6 4 3 6 7 9 8 7 16 16 8 6 3 4 7 5 5 4 5 4 1 2 4 4 4 4 5 3 4 4 3 3 2 3 1 1 2 4 5 7 9 11 12 13 13 12 12 13
4 4 3 2 7 3 9 10 3 15 14 9 8 8 8 9 11 12 8 5 4 1 2 3 4 5 4 5 5 6 5 4 4 3 2 3 2 2 3 5 7 8 9 11 13 15 15 15 16
10 9 8 7 4 5 5 9 10 12 10 9 9 9 10 11 14 15 11 7 6 0 3 5 6 6 7 7 6 5 4 3 3 3 3 4 4 3 3 4 6 8 10 11 13 14 15 16 18
8 6 8 9 5 4 8 7 9 9 8 9 9 9 10 11 14 14 15 5 4 3 5 5 6 6 6 6 5 4 3 3 3 3 4 5 5 4 4 4 5 8 9 10 10 12 16 18 20
8 4 3 8 5 3 6 8 7 6 6 7 8 9 10 12 16 14 10 5 3 3 5 8 7 7 6 5 5 4 3 2 3 4 3 4 5 5 4 4 5 7 7 8 10 10 11 14 18
5 6 3 2 4 2 5 7 6 5 6 7 8 10 11 13 15 15 12 7 3 4 7 6 6 6 5 4 4 3 3 2 3 3 3 4 4 5 5 5 5 5 5 6 9 10 10 12 14
1 4 4 2 3 2 2 4 5 4 5 7 8 10 12 13 15 16 15 12 8 5 5 7 5 4 4 4 4 3 2 1 1 2 2 4 4 5 5 6 6 7 7 6 8 10 10 10 10
4 5 2 3 1 7 7 5 4 4 6 7 7 10 11 11 13 15 15 14 12 9 7 5 4 3 2 2 2 3 4 5 5 6 6 7 7 8 7 6 6 5 7 6 7 8 10 11 6
1 6 3 8 2 6 6 11 10 7 6 6 7 8 9 11 12 12 14 13 11 10 10 8 8 8 7 7 6 6 8 9 9 10 9 11 12 12 12 10 9 7 6 6 5 6 7 11 11
9 3 7 9 9 9 3 9 12 10 8 5 4 5 7 9 10 11 11 12 12 12 11 10 10 9 8 8 7 8 10 12 15 16 18 17 18 18 17 16 14 12 10 7 5 4 4 7 12
6 7 7 9 11 11 13 7 10 10 9 7 3 3 4 6 7 9 11 11 12 11 12 11 11 11 10 9 8 10 10 13 17 19 18 20 22 22 22 21 20 17 15 11 7 5 4 4 8
5 8 7 6 6 9 4 5 4 6 9 7 4 0 4 7 7 8 8 10 11 13 14 16 17 16 15 13 11 10 10 12 14 18 18 22 23 22 20 20 24 22 18 14 11 7 5 4 5
8 8 4 4 5 5 3 7 3 5 3 2 2 2 2 5 6 8 11 14 16 18 21 22 20 21 21 21 20 19 18 17 18 18 21 22 23 23 21 20 23 25 23 17 13 10 7 6 7
5 6 4 5 6 11 7 5 5 4 3 2 1 4 6 8 11 12 17 18 20 21 22 22 21 22 22 23 24 24 23 23 24 24 23 26 27 26 24 23 23 25 25 21 16 14 11 9 9
3 1 4 5 8 8 1 4 10 7 5 3 3 7 9 11 13 15 19 20 21 22 23 23 25 26 26 27 27 27 26 26 27 27 29 29 29 28 26 23 22 24 25 23 18 15 13 12 12
6 3 4 2 4 9 6 8 6 6 8 4 8 9 11 13 15 17 20 23 23 23 24 25 26 27 28 29 29 29 28 28 30 32 34 33 30 28 28 28 26 25 25 22 19 17 16 16 15
6 4 1 4 4 5 8 5 6 8 8 8 13 15 15 16 17 17 24 25 26 26 27 27 28 29 30 31 30 29 29 31 32 33 32 30 30 31 32 32 31 25 23 21 19 19 18 19 18
3 3 3 3 3 7 10 14 6 4 9 9 13 14 16 16 17 20 25 27 28 28 29 30 30 31 31 30 29 29 30 29 28 26 28 30 31 30 29 27 30 31 27 25 22 22 22 21 21
Wind_Direction
257 183 199 237 254 241 103 89 45 103 158 87 92 135 48 11 352 25 121 129 145 149 159 159 166 170 162 165 168 169 169 166 162 161 159 157 156 153 146 141 136 130 126 123 118 111 108 109 107
215 176 216 279 235 187 67 61 77 51 67 137 131 154 157 92 81 105 138 145 138 145 155 159 173 171 171 162 168 172 171 170 165 162 160 159 158 156 154 151 145 138 130 126 122 118 115 115 117
202 222 263 271 257 181 149 118 106 102 136 209 137 168 93 86 105 121 99 147 151 150 159 170 176 171 172 171 168 167 171 170 167 165 163 162 160 160 159 159 156 151 147 143 139 140 135 133 137
199 203 225 246 108 52 82 116 114 132 130 244 13 106 114 56 117 98 122 142 150 150 153 176 170 170 166 170 172 172 166 170 168 167 167 166 165 165 164 169 175 176 177 181 183 188 192 200 208
220 246 244 268 105 127 85 98 158 152 65 76 251 95 90 112 102 115 130 139 144 146 145 160 172 172 160 162 165 165 169 168 170 168 165 171 170 174 179 181 192 206 211 216 229 237 239 242 251
224 273 247 189 158 140 129 154 214 286 21 85 208 132 99 126 122 115 128 138 142 140 136 148 163 169 163 163 161 162 165 165 173 174 175 179 184 190 201 207 211 218 226 229 235 248 257 265 265
263 237 249 223 164 156 121 254 237 344 81 134 19 123 99 139 135 121 129 139 145 146 145 149 154 159 160 165 162 159 157 173 178 186 196 200 205 213 220 223 223 230 232 232 237 246 255 261 268
272 261 195 201 173 122 132 175 293 228 84 80 320 19 94 129 153 142 131 135 145 149 149 151 153 155 157 171 164 152 153 168 180 200 205 213 219 228 229 233 240 237 237 241 241 247 254 261 266
264 235 203 154 183 116 143 171 169 64 153 122 45 7 61 144 166 169 164 143 135 151 158 158 159 163 172 168 170 164 160 168 180 193 202 214 218 230 231 233 231 245 244 245 248 248 253 262 268
248 218 67 45 70 132 131 294 148 220 163 203 224 125 136 157 169 178 191 185 171 163 171 172 170 167 166 164 168 166 170 169 189 193 205 210 229 232 227 231 246 246 250 252 252 255 256 255 257
314 97 122 103 71 3 120 139 129 268 191 10 337 93 158 187 193 200 187 214 197 189 178 172 164 165 170 169 164 145 134 168 187 173 223 245 245 253 262 258 262 259 266 255 259 253 250 247 250
114 96 88 81 55 221 139 103 76 47 9 334 318 3 323 209 214 216 272 166 180 143 148 168 163 167 171 157 118 120 130 98 90 132 196 330 279 265 265 267 275 263 262 256 255 256 251 248 249
116 115 96 103 90 60 96 61 98 30 2 15 17 355 332 311 275 260 277 10 5 109 100 150 144 153 146 118 111 104 86 89 103 80 39 13 319 311 303 287 278 273 273 267 262 261 260 257 252
145 134 123 92 86 94 96 60 355 9 354 10 6 355 337 320 302 294 280 306 330 32 100 101 97 98 115 115 112 105 98 93 93 86 69 45 66 2 315 315 306 297 293 288 280 270 267 263 265
154 151 129 83 134 131 151 75 35 4 2 10 1 347 335 335 326 296 292 319 317 200 139 118 104 98 105 106 103 107 107 128 113 96 72 60 52 18 5 336 326 319 312 301 292 282 275 268 265
200 240 194 81 154 142 225 107 44 9 12 27 21 12 359 0 357 352 322 284 272 222 146 112 117 113 107 110 114 120 122 131 102 69 41 34 31 19 9 353 346 334 326 313 314 304 289 281 275
194 175 168 122 58 161 251 116 49 27 36 41 38 33 29 24 22 12 2 335 299 228 156 123 117 119 117 107 122 126 125 112 75 53 27 17 17 21 21 2 345 345 330 322 322 317 306 293 281
150 178 196 242 80 107 106 110 86 57 57 53 50 47 44 41 30 25 23 24 56 128 129 117 122 119 123 135 137 153 148 114 98 70 33 20 10 10 8 349 355 345 324 322 323 326 314 301 290
280 262 265 92 90 216 88 125 94 78 76 69 55 50 47 47 45 42 39 43 53 82 120 132 131 120 152 187 201 202 195 174 235 303 327 329 317 324 331 325 331 333 327 335 325 318 310 306 306
262 269 228 201 107 280 179 157 133 111 84 66 57 55 48 45 47 42 42 44 51 52 51 56 51 34 349 284 293 272 268 255 269 278 285 289 289 290 290 290 295 301 311 317 327 328 316 296 304
321 304 288 298 257 253 233 201 181 151 129 101 75 60 50 43 41 40 41 40 37 33 24 22 17 10 360 342 311 294 276 265 263 265 281 287 285 284 275 270 267 268 288 295 302 312 321 309 296
284 19 293 280 274 289 236 289 192 166 162 148 107 55 36 24 27 29 24 24 27 24 23 17 5 355 342 339 321 300 292 289 293 289 287 290 285 278 265 257 251 252 260 251 254 273 308 305 302
12 319 296 288 272 289 231 256 106 174 193 170 159 55 34 17 9 5 6 5 6 5 1 356 352 349 344 325 304 296 299 302 295 292 294 290 283 275 262 255 247 243 245 237 230 240 263 297 305
308 261 251 262 258 241 107 263 235 183 237 168 188 314 359 353 345 343 342 336 341 339 337 330 326 319 313 305 296 292 292 297 302 304 304 290 286 282 269 253 250 243 236 236 234 230 248 274 290
326 310 306 234 207 280 102 265 308 100 147 282 254 290 329 329 329 329 326 323 320 319 324 320 313 307 301 296 288 283 283 284 284 285 287 287 283 283 283 267 248 243 238 232 231 235 241 264 279
354 333 312 303 319 315 236 262 76 93 139 175 265 313 299 323 330 322 316 315 313 316 313 314 310 308 307 298 290 282 278 284 287 286 291 288 286 286 285 278 263 246 242 231 229 238 244 249 269
59 347 9 300 265 264 340 208 191 170 186 216 302 319 319 324 315 312 315 315 312 308 305 306 304 303 301 297 291 286 278 280 285 288 287 285 280 276 274 275 268 251 239 235 233 240 250 258 261
336 96 227 187 297 310 324 312 310 190 246 240 278 311 316 312 311 314 315 315 311 305 301 302 303 302 300 297 293 288 283 282 287 290 290 286 279 276 276 272 265 253 237 231 232 243 248 255 262
169 192 312 302 288 293 309 2 51 316 329 309 317 322 315 319 315 317 315 312 310 305 303 305 304 302 302 298 292 289 292 291 291 290 287 284 284 280 275 268 265 248 239 230 237 241 248 253 259
281 279 293 280 261 261 282 292 49 354 316 307 298 308 313 305 311 310 316 313 313 309 307 306 305 303 299 298 299 299 301 294 291 288 291 286 282 278 278 278 266 250 244 237 241 245 250 253 254